Station Historical Data
Daily Summary for June 15, 2012 Units:  English    Metric   Both
« Previous Day
Next Day »
Daily Weekly Monthly Yearly Custom
  High: Low: Average:
Temperature: 87.6 °F 68.6 °F 77.6 °F
Dew Point: 70.9 °F 66.5 °F 68.6 °F
Humidity: 93% 52% 75%
Wind Speed: 16.0mph 0.0mph 4.5mph
Wind Gust: 16.0mph - -
Wind- - SE
Pressure: 30.07 in 29.93 in -
Precipitation: 0.00 in    
Historical Graphs
 
 
Tabular Data for June 15, 2012
Time Temperature Dew Point Pressure Wind Wind Speed Wind Gust Humidity Rainfall Rate (Hourly) Conditions
00:00 74.5 °F 68.3 °F 29.97 in SE 1.0 mph 2.0 mph 81% 0.00 in
00:05 74.3 °F 68.4 °F 29.96 in ESE 2.0 mph 2.0 mph 82% 0.00 in
00:10 74.2 °F 68.4 °F 29.96 in East 2.0 mph 2.0 mph 82% 0.00 in
00:16 73.9 °F 68.1 °F 29.96 in ESE 1.0 mph 2.0 mph 82% 0.00 in
00:21 73.9 °F 68.4 °F 29.96 in East 2.0 mph 2.0 mph 83% 0.00 in
00:26 73.9 °F 68.4 °F 29.96 in ESE 1.0 mph 2.0 mph 83% 0.00 in
00:31 74.0 °F 68.9 °F 29.96 in ESE 2.0 mph 2.0 mph 84% 0.00 in
00:36 74.1 °F 69.0 °F 29.96 in ESE 2.0 mph 2.0 mph 84% 0.00 in
00:41 74.1 °F 68.6 °F 29.96 in SE 2.0 mph 2.0 mph 83% 0.00 in
00:46 73.9 °F 68.8 °F 29.96 in SE 2.0 mph 3.0 mph 84% 0.00 in
00:51 73.8 °F 68.7 °F 29.96 in SE 2.0 mph 2.0 mph 84% 0.00 in
00:56 73.6 °F 68.8 °F 29.96 in SSE 1.0 mph 2.0 mph 85% 0.00 in
01:01 73.4 °F 68.6 °F 29.95 in SE 1.0 mph 2.0 mph 85% 0.00 in
01:06 73.4 °F 69.0 °F 29.95 in SE 2.0 mph 4.0 mph 86% 0.00 in
01:11 73.4 °F 69.3 °F 29.95 in SE 2.0 mph 2.0 mph 87% 0.00 in
01:16 73.3 °F 68.9 °F 29.94 in SSE 2.0 mph 2.0 mph 86% 0.00 in
01:21 73.0 °F 68.9 °F 29.94 in SE 2.0 mph 2.0 mph 87% 0.00 in
01:26 73.1 °F 69.3 °F 29.94 in SE 3.0 mph 4.0 mph 88% 0.00 in
01:31 73.3 °F 69.2 °F 29.94 in East 2.0 mph 4.0 mph 87% 0.00 in
01:36 73.0 °F 68.9 °F 29.94 in ESE 1.0 mph 2.0 mph 87% 0.00 in
01:41 72.8 °F 69.0 °F 29.94 in ESE 1.0 mph 2.0 mph 88% 0.00 in
01:46 72.6 °F 68.8 °F 29.94 in SE 1.0 mph 2.0 mph 88% 0.00 in
01:51 72.2 °F 68.8 °F 29.94 in SE 3.0 mph 3.0 mph 89% 0.00 in
01:56 71.8 °F 68.7 °F 29.94 in SE 1.0 mph 4.0 mph 90% 0.00 in
02:01 71.6 °F 68.5 °F 29.94 in SE 2.0 mph 3.0 mph 90% 0.00 in
02:06 71.5 °F 68.4 °F 29.94 in ESE 3.0 mph 3.0 mph 90% 0.00 in
02:11 71.5 °F 68.7 °F 29.93 in ESE 2.0 mph 2.0 mph 91% 0.00 in
02:16 71.4 °F 68.6 °F 29.93 in SE 3.0 mph 3.0 mph 91% 0.00 in
02:21 71.6 °F 68.8 °F 29.93 in ESE 3.0 mph 4.0 mph 91% 0.00 in
02:26 71.6 °F 68.8 °F 29.94 in SE 2.0 mph 5.0 mph 91% 0.00 in
02:31 71.6 °F 68.8 °F 29.93 in SE 4.0 mph 4.0 mph 91% 0.00 in
02:36 71.6 °F 68.8 °F 29.93 in ESE 3.0 mph 5.0 mph 91% 0.00 in
02:41 71.4 °F 68.6 °F 29.93 in ESE 3.0 mph 5.0 mph 91% 0.00 in
02:46 71.4 °F 68.6 °F 29.94 in ESE 2.0 mph 4.0 mph 91% 0.00 in
02:51 71.2 °F 68.4 °F 29.94 in ESE 2.0 mph 3.0 mph 91% 0.00 in
02:56 71.0 °F 68.2 °F 29.94 in East 2.0 mph 3.0 mph 91% 0.00 in
03:01 70.8 °F 68.4 °F 29.94 in ESE 2.0 mph 4.0 mph 92% 0.00 in
03:06 70.7 °F 68.3 °F 29.94 in ESE 3.0 mph 3.0 mph 92% 0.00 in
03:11 70.6 °F 68.2 °F 29.94 in ESE 3.0 mph 5.0 mph 92% 0.00 in
03:16 70.5 °F 68.1 °F 29.94 in ESE 2.0 mph 3.0 mph 92% 0.00 in
03:21 70.5 °F 68.1 °F 29.95 in SE 2.0 mph 2.0 mph 92% 0.00 in
03:26 70.4 °F 68.0 °F 29.95 in SE 1.0 mph 2.0 mph 92% 0.00 in
03:31 70.3 °F 67.9 °F 29.95 in ESE 2.0 mph 3.0 mph 92% 0.00 in
03:36 70.4 °F 68.0 °F 29.94 in ESE 5.0 mph 6.0 mph 92% 0.00 in
03:41 70.5 °F 68.1 °F 29.95 in SE 3.0 mph 5.0 mph 92% 0.00 in
03:46 70.7 °F 68.3 °F 29.95 in ESE 4.0 mph 5.0 mph 92% 0.00 in
03:51 70.9 °F 68.5 °F 29.95 in SE 3.0 mph 6.0 mph 92% 0.00 in
03:56 71.0 °F 68.6 °F 29.95 in SE 3.0 mph 5.0 mph 92% 0.00 in
04:01 71.1 °F 68.3 °F 29.96 in SE 4.0 mph 6.0 mph 91% 0.00 in
04:06 71.2 °F 68.4 °F 29.96 in SE 2.0 mph 5.0 mph 91% 0.00 in
04:11 71.2 °F 68.4 °F 29.96 in SE 6.0 mph 6.0 mph 91% 0.00 in
04:16 71.2 °F 68.4 °F 29.96 in ESE 4.0 mph 5.0 mph 91% 0.00 in
04:21 71.1 °F 68.3 °F 29.96 in SE 3.0 mph 5.0 mph 91% 0.00 in
04:26 71.1 °F 68.3 °F 29.96 in SE 3.0 mph 5.0 mph 91% 0.00 in
04:31 71.0 °F 68.2 °F 29.96 in ESE 3.0 mph 5.0 mph 91% 0.00 in
04:36 70.9 °F 68.2 °F 29.96 in ESE 4.0 mph 5.0 mph 91% 0.00 in
04:41 70.8 °F 68.1 °F 29.96 in SE 3.0 mph 5.0 mph 91% 0.00 in
04:46 70.6 °F 67.8 °F 29.97 in ESE 4.0 mph 4.0 mph 91% 0.00 in
04:51 70.5 °F 67.8 °F 29.97 in SE 2.0 mph 4.0 mph 91% 0.00 in
04:56 70.4 °F 68.0 °F 29.97 in SE 4.0 mph 4.0 mph 92% 0.00 in
05:01 70.5 °F 68.1 °F 29.98 in SE 2.0 mph 5.0 mph 92% 0.00 in
05:06 70.5 °F 68.1 °F 29.98 in SE 2.0 mph 4.0 mph 92% 0.00 in
05:11 70.5 °F 68.1 °F 29.98 in East 4.0 mph 4.0 mph 92% 0.00 in
05:16 70.5 °F 68.1 °F 29.99 in SSE 3.0 mph 4.0 mph 92% 0.00 in
05:21 70.5 °F 68.1 °F 29.99 in SE 3.0 mph 5.0 mph 92% 0.00 in
05:26 70.5 °F 68.1 °F 29.99 in ESE 3.0 mph 4.0 mph 92% 0.00 in
05:31 70.3 °F 67.9 °F 30.00 in SE 3.0 mph 5.0 mph 92% 0.00 in
05:36 70.2 °F 67.8 °F 30.00 in SE 2.0 mph 4.0 mph 92% 0.00 in
05:41 70.2 °F 67.8 °F 30.00 in SE 3.0 mph 4.0 mph 92% 0.00 in
05:46 70.1 °F 67.7 °F 30.00 in ESE 3.0 mph 5.0 mph 92% 0.00 in
05:51 70.0 °F 67.6 °F 30.00 in SE 3.0 mph 4.0 mph 92% 0.00 in
05:56 69.9 °F 67.5 °F 30.00 in ESE 2.0 mph 5.0 mph 92% 0.00 in
06:01 69.7 °F 67.3 °F 30.00 in ESE 1.0 mph 4.0 mph 92% 0.00 in
06:06 69.6 °F 67.2 °F 30.01 in SE 3.0 mph 3.0 mph 92% 0.00 in
06:11 69.4 °F 67.0 °F 30.01 in SE 2.0 mph 4.0 mph 92% 0.00 in
06:16 69.3 °F 66.9 °F 30.01 in ESE 2.0 mph 4.0 mph 92% 0.00 in
06:21 69.1 °F 66.7 °F 30.01 in ESE 1.0 mph 3.0 mph 92% 0.00 in
06:26 68.9 °F 66.5 °F 30.01 in ESE 2.0 mph 3.0 mph 92% 0.00 in
06:32 68.8 °F 66.7 °F 30.02 in ESE 3.0 mph 4.0 mph 93% 0.00 in
06:37 68.7 °F 66.6 °F 30.02 in SE 2.0 mph 3.0 mph 93% 0.00 in
06:42 68.6 °F 66.5 °F 30.02 in SE 2.0 mph 3.0 mph 93% 0.00 in
06:47 68.7 °F 66.6 °F 30.03 in ESE 2.0 mph 3.0 mph 93% 0.00 in
06:52 68.7 °F 66.6 °F 30.03 in ESE 2.0 mph 3.0 mph 93% 0.00 in
06:57 68.6 °F 66.5 °F 30.04 in ESE 2.0 mph 3.0 mph 93% 0.00 in
07:02 68.7 °F 66.6 °F 30.03 in ESE 1.0 mph 3.0 mph 93% 0.00 in
07:07 68.8 °F 66.7 °F 30.03 in ESE 2.0 mph 3.0 mph 93% 0.00 in
07:12 68.9 °F 66.8 °F 30.04 in SE 3.0 mph 3.0 mph 93% 0.00 in
07:17 69.1 °F 67.0 °F 30.04 in East 1.0 mph 2.0 mph 93% 0.00 in
07:22 69.4 °F 67.0 °F 30.04 in ESE 2.0 mph 3.0 mph 92% 0.00 in
07:27 69.6 °F 67.2 °F 30.04 in ESE 1.0 mph 3.0 mph 92% 0.00 in
07:32 69.8 °F 67.4 °F 30.04 in SE 2.0 mph 4.0 mph 92% 0.00 in
07:37 70.1 °F 67.7 °F 30.04 in East 2.0 mph 4.0 mph 92% 0.00 in
07:42 70.4 °F 68.0 °F 30.04 in East 3.0 mph 4.0 mph 92% 0.00 in
07:47 70.7 °F 68.3 °F 30.04 in East 2.0 mph 6.0 mph 92% 0.00 in
07:52 71.2 °F 68.8 °F 30.05 in East 4.0 mph 5.0 mph 92% 0.00 in
07:57 71.2 °F 68.8 °F 30.05 in ESE 6.0 mph 6.0 mph 92% 0.00 in
08:02 71.2 °F 68.4 °F 30.05 in East 2.0 mph 6.0 mph 91% 0.00 in
08:07 71.2 °F 68.8 °F 30.05 in SE 3.0 mph 6.0 mph 92% 0.00 in
08:12 71.3 °F 68.5 °F 30.05 in SE 6.0 mph 8.0 mph 91% 0.00 in
08:17 71.5 °F 68.7 °F 30.05 in ESE 6.0 mph 6.0 mph 91% 0.00 in
08:22 71.8 °F 69.0 °F 30.05 in SE 4.0 mph 8.0 mph 91% 0.00 in
08:27 72.0 °F 69.2 °F 30.05 in East 3.0 mph 7.0 mph 91% 0.00 in
08:32 72.2 °F 69.1 °F 30.05 in ESE 3.0 mph 8.0 mph 90% 0.00 in
08:37 72.3 °F 69.2 °F 30.06 in ESE 5.0 mph 7.0 mph 90% 0.00 in
08:42 72.3 °F 69.2 °F 30.06 in ESE 5.0 mph 8.0 mph 90% 0.00 in
08:47 72.6 °F 69.5 °F 30.06 in SE 2.0 mph 7.0 mph 90% 0.00 in
08:52 73.0 °F 69.6 °F 30.06 in ESE 7.0 mph 8.0 mph 89% 0.00 in
08:57 73.4 °F 70.0 °F 30.06 in SE 9.0 mph 9.0 mph 89% 0.00 in
09:02 73.5 °F 69.7 °F 30.06 in SE 6.0 mph 10.0 mph 88% 0.00 in
09:07 73.7 °F 69.9 °F 30.06 in SE 8.0 mph 9.0 mph 88% 0.00 in
09:12 74.0 °F 69.9 °F 30.06 in SE 8.0 mph 11.0 mph 87% 0.00 in
09:17 74.3 °F 69.8 °F 30.06 in ESE 7.0 mph 10.0 mph 86% 0.00 in
09:22 74.7 °F 70.2 °F 30.06 in SSE 6.0 mph 10.0 mph 86% 0.00 in
09:27 75.0 °F 70.2 °F 30.07 in ESE 5.0 mph 11.0 mph 85% 0.00 in
09:33 75.4 °F 69.9 °F 30.07 in SE 10.0 mph 10.0 mph 83% 0.00 in
09:38 75.3 °F 69.8 °F 30.07 in SE 9.0 mph 11.0 mph 83% 0.00 in
09:43 75.3 °F 69.4 °F 30.06 in ESE 8.0 mph 13.0 mph 82% 0.00 in
09:48 75.6 °F 69.4 °F 30.06 in ESE 12.0 mph 14.0 mph 81% 0.00 in
09:53 75.9 °F 69.7 °F 30.07 in SSE 5.0 mph 11.0 mph 81% 0.00 in
09:58 76.0 °F 69.4 °F 30.06 in SE 7.0 mph 14.0 mph 80% 0.00 in
10:03 76.1 °F 69.5 °F 30.06 in ESE 6.0 mph 11.0 mph 80% 0.00 in
10:08 76.2 °F 69.6 °F 30.07 in SE 5.0 mph 10.0 mph 80% 0.00 in
10:13 76.8 °F 69.1 °F 30.06 in SE 12.0 mph 12.0 mph 77% 0.00 in
10:18 76.7 °F 68.6 °F 30.07 in SE 8.0 mph 14.0 mph 76% 0.00 in
10:23 76.5 °F 68.8 °F 30.06 in SE 10.0 mph 14.0 mph 77% 0.00 in
10:28 76.8 °F 69.4 °F 30.06 in SSE 9.0 mph 13.0 mph 78% 0.00 in
10:33 77.2 °F 69.8 °F 30.06 in ESE 9.0 mph 12.0 mph 78% 0.00 in
10:38 77.8 °F 70.4 °F 30.06 in ESE 13.0 mph 13.0 mph 78% 0.00 in
10:43 77.5 °F 69.3 °F 30.06 in SSE 4.0 mph 12.0 mph 76% 0.00 in
10:48 77.8 °F 68.9 °F 30.06 in South 12.0 mph 12.0 mph 74% 0.00 in
10:53 78.0 °F 69.4 °F 30.06 in SSE 11.0 mph 11.0 mph 75% 0.00 in
10:58 78.3 °F 68.1 °F 30.06 in ESE 9.0 mph 11.0 mph 71% 0.00 in
11:03 78.5 °F 68.7 °F 30.06 in South 8.0 mph 11.0 mph 72% 0.00 in
11:08 78.6 °F 69.6 °F 30.06 in ESE 9.0 mph 13.0 mph 74% 0.00 in
11:13 78.6 °F 70.0 °F 30.06 in SE 6.0 mph 11.0 mph 75% 0.00 in
11:18 79.0 °F 68.8 °F 30.06 in ESE 11.0 mph 12.0 mph 71% 0.00 in
11:23 79.0 °F 69.6 °F 30.05 in SSE 7.0 mph 12.0 mph 73% 0.00 in
11:28 79.2 °F 69.0 °F 30.05 in ESE 8.0 mph 10.0 mph 71% 0.00 in
11:33 79.6 °F 69.8 °F 30.06 in SE 8.0 mph 11.0 mph 72% 0.00 in
11:38 79.4 °F 69.2 °F 30.05 in East 9.0 mph 13.0 mph 71% 0.00 in
11:43 79.2 °F 70.2 °F 30.05 in SE 5.0 mph 11.0 mph 74% 0.00 in
11:48 79.6 °F 69.4 °F 30.05 in East 10.0 mph 12.0 mph 71% 0.00 in
11:53 79.5 °F 70.9 °F 30.05 in East 5.0 mph 9.0 mph 75% 0.00 in
11:58 80.0 °F 70.6 °F 30.05 in SE 13.0 mph 13.0 mph 73% 0.00 in
12:03 80.2 °F 68.3 °F 30.05 in SE 11.0 mph 14.0 mph 67% 0.00 in
12:08 80.3 °F 67.9 °F 30.05 in SSE 12.0 mph 13.0 mph 66% 0.00 in
12:13 80.4 °F 68.0 °F 30.05 in South 10.0 mph 12.0 mph 66% 0.00 in
12:18 80.6 °F 67.8 °F 30.04 in SSE 7.0 mph 10.0 mph 65% 0.00 in
12:23 80.9 °F 69.8 °F 30.04 in ESE 8.0 mph 10.0 mph 69% 0.00 in
12:28 81.3 °F 69.3 °F 30.05 in SE 7.0 mph 11.0 mph 67% 0.00 in
12:33 81.6 °F 69.6 °F 30.04 in SE 8.0 mph 11.0 mph 67% 0.00 in
12:38 81.4 °F 69.0 °F 30.05 in SE 7.0 mph 13.0 mph 66% 0.00 in
12:43 81.3 °F 69.3 °F 30.04 in SE 11.0 mph 14.0 mph 67% 0.00 in
12:48 81.2 °F 69.2 °F 30.04 in SE 9.0 mph 12.0 mph 67% 0.00 in
12:53 81.7 °F 70.1 °F 30.04 in East 8.0 mph 12.0 mph 68% 0.00 in
12:58 82.1 °F 70.5 °F 30.04 in SE 11.0 mph 11.0 mph 68% 0.00 in
13:03 82.0 °F 69.1 °F 30.04 in SSE 9.0 mph 11.0 mph 65% 0.00 in
13:08 82.1 °F 66.8 °F 30.04 in SSE 5.0 mph 13.0 mph 60% 0.00 in
13:13 82.3 °F 68.9 °F 30.04 in SSW 5.0 mph 12.0 mph 64% 0.00 in
13:18 82.6 °F 69.2 °F 30.04 in SE 9.0 mph 10.0 mph 64% 0.00 in
13:23 82.7 °F 67.4 °F 30.04 in South 10.0 mph 13.0 mph 60% 0.00 in
13:29 82.8 °F 68.9 °F 30.04 in SE 5.0 mph 9.0 mph 63% 0.00 in
13:33 82.7 °F 67.4 °F 30.03 in SE 8.0 mph 16.0 mph 60% 0.00 in
13:39 82.7 °F 67.4 °F 30.04 in ESE 9.0 mph 13.0 mph 60% 0.00 in
13:44 83.1 °F 68.7 °F 30.04 in South 3.0 mph 9.0 mph 62% 0.00 in
13:49 83.4 °F 69.5 °F 30.04 in South 9.0 mph 12.0 mph 63% 0.00 in
13:54 83.6 °F 70.1 °F 30.04 in SSE 6.0 mph 9.0 mph 64% 0.00 in
13:59 83.9 °F 68.1 °F 30.04 in ESE 8.0 mph 11.0 mph 59% 0.00 in
14:04 83.4 °F 68.6 °F 30.03 in SSE 8.0 mph 11.0 mph 61% 0.00 in
14:09 83.4 °F 69.0 °F 30.03 in SSE 3.0 mph 11.0 mph 62% 0.00 in
14:14 83.7 °F 69.3 °F 30.03 in SE 16.0 mph 16.0 mph 62% 0.00 in
14:19 83.4 °F 69.5 °F 30.03 in ESE 5.0 mph 10.0 mph 63% 0.00 in
14:24 83.2 °F 68.4 °F 30.03 in SSE 6.0 mph 10.0 mph 61% 0.00 in
14:29 83.9 °F 70.0 °F 30.03 in SSW 5.0 mph 9.0 mph 63% 0.00 in
14:34 84.1 °F 70.2 °F 30.03 in ESE 7.0 mph 9.0 mph 63% 0.00 in
14:39 84.1 °F 70.2 °F 30.02 in SE 11.0 mph 12.0 mph 63% 0.00 in
14:44 84.0 °F 70.1 °F 30.03 in SSE 6.0 mph 11.0 mph 63% 0.00 in
14:49 84.1 °F 69.7 °F 30.02 in South 11.0 mph 11.0 mph 62% 0.00 in
14:54 84.0 °F 69.1 °F 30.02 in ESE 10.0 mph 10.0 mph 61% 0.00 in
14:59 84.7 °F 70.2 °F 30.02 in SSE 9.0 mph 10.0 mph 62% 0.00 in
15:04 84.7 °F 67.3 °F 30.02 in SE 7.0 mph 12.0 mph 56% 0.00 in
15:09 84.7 °F 69.3 °F 30.02 in SSE 10.0 mph 12.0 mph 60% 0.00 in
15:14 84.9 °F 69.0 °F 30.02 in SE 11.0 mph 11.0 mph 59% 0.00 in
15:19 85.1 °F 68.2 °F 30.01 in ESE 10.0 mph 10.0 mph 57% 0.00 in
15:24 85.2 °F 69.3 °F 30.01 in South 11.0 mph 11.0 mph 59% 0.00 in
15:29 85.3 °F 69.4 °F 30.01 in SSE 9.0 mph 11.0 mph 59% 0.00 in
15:34 85.3 °F 68.9 °F 30.01 in ESE 8.0 mph 10.0 mph 58% 0.00 in
15:39 85.7 °F 70.2 °F 30.01 in South 7.0 mph 9.0 mph 60% 0.00 in
15:44 85.5 °F 69.6 °F 30.01 in SSE 5.0 mph 8.0 mph 59% 0.00 in
15:49 85.7 °F 68.2 °F 30.01 in SSE 5.0 mph 9.0 mph 56% 0.00 in
15:54 85.8 °F 69.8 °F 30.01 in SSE 11.0 mph 11.0 mph 59% 0.00 in
15:59 85.5 °F 68.0 °F 30.01 in SE 10.0 mph 10.0 mph 56% 0.00 in
16:04 85.6 °F 68.6 °F 30.01 in SSW 10.0 mph 10.0 mph 57% 0.00 in
16:09 85.6 °F 67.1 °F 30.00 in SE 6.0 mph 10.0 mph 54% 0.00 in
16:14 85.9 °F 68.4 °F 30.00 in SSW 3.0 mph 6.0 mph 56% 0.00 in
16:19 86.2 °F 68.2 °F 30.01 in SE 8.0 mph 9.0 mph 55% 0.00 in
16:24 85.9 °F 67.3 °F 30.01 in SE 9.0 mph 9.0 mph 54% 0.00 in
16:29 86.0 °F 68.0 °F 30.00 in SSW 8.0 mph 9.0 mph 55% 0.00 in
16:34 86.5 °F 69.0 °F 30.01 in SSW 6.0 mph 6.0 mph 56% 0.00 in
16:39 86.7 °F 69.1 °F 30.00 in SSW 5.0 mph 9.0 mph 56% 0.00 in
16:44 86.5 °F 68.4 °F 30.00 in SE 7.0 mph 11.0 mph 55% 0.00 in
16:49 86.3 °F 69.3 °F 30.00 in SSE 8.0 mph 11.0 mph 57% 0.00 in
16:54 86.4 °F 67.8 °F 30.01 in SE 5.0 mph 9.0 mph 54% 0.00 in
16:59 86.5 °F 67.9 °F 30.00 in SW 4.0 mph 6.0 mph 54% 0.00 in
17:04 86.7 °F 68.6 °F 30.00 in SW 7.0 mph 8.0 mph 55% 0.00 in
17:09 86.5 °F 69.0 °F 30.00 in ESE 6.0 mph 9.0 mph 56% 0.00 in
17:14 86.6 °F 69.1 °F 30.01 in SSE 3.0 mph 8.0 mph 56% 0.00 in
17:19 86.7 °F 69.1 °F 30.01 in ESE 4.0 mph 7.0 mph 56% 0.00 in
17:24 86.3 °F 67.7 °F 30.00 in ESE 6.0 mph 11.0 mph 54% 0.00 in
17:29 86.2 °F 67.6 °F 30.00 in SE 7.0 mph 8.0 mph 54% 0.00 in
17:34 86.3 °F 67.2 °F 30.00 in SSE 5.0 mph 10.0 mph 53% 0.00 in
17:39 86.4 °F 66.7 °F 30.00 in SE 4.0 mph 7.0 mph 52% 0.00 in
17:44 86.5 °F 69.0 °F 30.00 in SSE 5.0 mph 5.0 mph 56% 0.00 in
17:50 87.0 °F 68.9 °F 30.00 in SE 7.0 mph 8.0 mph 55% 0.00 in
17:55 86.6 °F 68.0 °F 30.00 in East 4.0 mph 9.0 mph 54% 0.00 in
18:00 86.4 °F 69.4 °F 30.00 in SE 2.0 mph 8.0 mph 57% 0.00 in
18:05 86.7 °F 67.5 °F 30.00 in South 3.0 mph 4.0 mph 53% 0.00 in
18:10 87.0 °F 67.8 °F 30.00 in SSE 2.0 mph 6.0 mph 53% 0.00 in
18:15 87.4 °F 69.8 °F 30.00 in SSW 3.0 mph 5.0 mph 56% 0.00 in
18:20 87.6 °F 68.9 °F 30.00 in SSE 3.0 mph 8.0 mph 54% 0.00 in
18:25 87.0 °F 67.3 °F 30.00 in SE 8.0 mph 9.0 mph 52% 0.00 in
18:30 86.8 °F 68.7 °F 30.00 in SSW 5.0 mph 10.0 mph 55% 0.00 in
18:35 86.7 °F 68.6 °F 30.00 in SSE 6.0 mph 6.0 mph 55% 0.00 in
18:40 86.6 °F 66.9 °F 30.00 in SSE 5.0 mph 7.0 mph 52% 0.00 in
18:45 86.6 °F 68.0 °F 30.00 in West 1.0 mph 5.0 mph 54% 0.00 in
18:50 86.7 °F 68.1 °F 30.00 in SSW 2.0 mph 5.0 mph 54% 0.00 in
18:55 87.0 °F 68.4 °F 30.00 in SE 3.0 mph 4.0 mph 54% 0.00 in
19:00 87.0 °F 68.4 °F 30.00 in South 2.0 mph 4.0 mph 54% 0.00 in
19:05 86.9 °F 68.3 °F 30.00 in SE 5.0 mph 6.0 mph 54% 0.00 in
19:10 86.6 °F 68.5 °F 29.99 in SSE 3.0 mph 6.0 mph 55% 0.00 in
19:15 86.4 °F 67.3 °F 30.00 in SSE 5.0 mph 6.0 mph 53% 0.00 in
19:20 86.5 °F 67.9 °F 30.00 in South 4.0 mph 4.0 mph 54% 0.00 in
19:25 86.6 °F 68.0 °F 30.00 in SSE 2.0 mph 4.0 mph 54% 0.00 in
19:30 86.3 °F 68.2 °F 30.00 in SSE 3.0 mph 6.0 mph 55% 0.00 in
19:35 86.2 °F 68.2 °F 30.00 in SSE 2.0 mph 4.0 mph 55% 0.00 in
19:40 86.1 °F 68.1 °F 30.00 in SSE 3.0 mph 5.0 mph 55% 0.00 in
19:45 85.7 °F 68.2 °F 30.00 in SSE 5.0 mph 5.0 mph 56% 0.00 in
19:50 85.6 °F 68.6 °F 30.00 in SSE 3.0 mph 5.0 mph 57% 0.00 in
19:55 85.4 °F 67.9 °F 30.00 in SSE 3.0 mph 3.0 mph 56% 0.00 in
20:00 85.3 °F 68.9 °F 30.00 in SE 4.0 mph 4.0 mph 58% 0.00 in
20:05 84.8 °F 68.9 °F 30.00 in SSE 3.0 mph 4.0 mph 59% 0.00 in
20:10 84.4 °F 69.5 °F 30.00 in SSE 2.0 mph 3.0 mph 61% 0.00 in
20:15 84.0 °F 69.6 °F 30.00 in SE 3.0 mph 3.0 mph 62% 0.00 in
20:20 83.8 °F 69.4 °F 30.00 in SSE 2.0 mph 3.0 mph 62% 0.00 in
20:25 83.4 °F 69.0 °F 30.00 in SSE 2.0 mph 4.0 mph 62% 0.00 in
20:30 83.0 °F 69.6 °F 30.01 in SE 2.0 mph 3.0 mph 64% 0.00 in
20:35 82.7 °F 69.3 °F 30.01 in SE 2.0 mph 3.0 mph 64% 0.00 in
20:40 82.3 °F 69.4 °F 30.01 in SE 2.0 mph 3.0 mph 65% 0.00 in
20:45 81.8 °F 69.3 °F 30.01 in SSE 1.0 mph 2.0 mph 66% 0.00 in
20:51 81.1 °F 69.1 °F 30.01 in SE 2.0 mph 2.0 mph 67% 0.00 in
20:56 80.7 °F 68.7 °F 30.01 in SSE 1.0 mph 2.0 mph 67% 0.00 in
21:01 80.1 °F 68.6 °F 30.01 in SE 1.0 mph 1.0 mph 68% 0.00 in
21:06 79.6 °F 68.5 °F 30.01 in Calm   1.0 mph 69% 0.00 in
21:11 79.2 °F 68.6 °F 30.01 in Calm     70% 0.00 in
21:16 78.8 °F 68.6 °F 30.01 in SE 1.0 mph 1.0 mph 71% 0.00 in
21:21 78.7 °F 68.5 °F 30.01 in SE 1.0 mph 2.0 mph 71% 0.00 in
21:26 78.6 °F 68.4 °F 30.01 in ESE 4.0 mph 4.0 mph 71% 0.00 in
21:31 78.6 °F 68.4 °F 30.01 in ESE 3.0 mph 3.0 mph 71% 0.00 in
21:36 78.6 °F 68.4 °F 30.01 in SE 2.0 mph 3.0 mph 71% 0.00 in
21:41 78.4 °F 68.2 °F 30.01 in ESE 3.0 mph 4.0 mph 71% 0.00 in
21:46 77.9 °F 68.6 °F 30.01 in ESE 6.0 mph 6.0 mph 73% 0.00 in
21:51 77.2 °F 68.7 °F 30.01 in ESE 4.0 mph 6.0 mph 75% 0.00 in
21:56 76.7 °F 68.9 °F 30.01 in SE 3.0 mph 4.0 mph 77% 0.00 in
22:01 76.6 °F 68.9 °F 30.02 in Calm   2.0 mph 77% 0.00 in
22:06 76.5 °F 68.8 °F 30.02 in East 1.0 mph 1.0 mph 77% 0.00 in
22:11 76.5 °F 69.1 °F 30.03 in East 1.0 mph 1.0 mph 78% 0.00 in
22:16 76.3 °F 68.9 °F 30.03 in East 1.0 mph 2.0 mph 78% 0.00 in
22:21 76.1 °F 68.8 °F 30.02 in ESE 1.0 mph 2.0 mph 78% 0.00 in
22:26 75.9 °F 68.6 °F 30.03 in ESE 2.0 mph 3.0 mph 78% 0.00 in
22:31 75.8 °F 68.5 °F 30.03 in ESE 2.0 mph 4.0 mph 78% 0.00 in
22:36 75.5 °F 68.2 °F 30.03 in ESE 2.0 mph 3.0 mph 78% 0.00 in
22:41 75.4 °F 68.1 °F 30.03 in Calm   1.0 mph 78% 0.00 in
22:46 75.1 °F 68.2 °F 30.04 in SE 1.0 mph 1.0 mph 79% 0.00 in
22:51 75.0 °F 68.1 °F 30.04 in ESE 1.0 mph 2.0 mph 79% 0.00 in
22:56 75.0 °F 68.1 °F 30.04 in Calm   1.0 mph 79% 0.00 in
23:01 74.8 °F 68.2 °F 30.04 in ESE 1.0 mph 2.0 mph 80% 0.00 in
23:06 74.6 °F 68.0 °F 30.04 in SE 1.0 mph 2.0 mph 80% 0.00 in
23:11 74.4 °F 68.2 °F 30.04 in SE 1.0 mph 2.0 mph 81% 0.00 in
23:16 74.2 °F 68.0 °F 30.04 in SE 2.0 mph 2.0 mph 81% 0.00 in
23:21 74.3 °F 68.1 °F 30.03 in SE 2.0 mph 2.0 mph 81% 0.00 in
23:26 74.4 °F 67.8 °F 30.04 in SE 3.0 mph 4.0 mph 80% 0.00 in
23:31 74.3 °F 67.7 °F 30.04 in ESE 4.0 mph 4.0 mph 80% 0.00 in
23:36 74.2 °F 67.6 °F 30.04 in ESE 5.0 mph 5.0 mph 80% 0.00 in
23:41 74.3 °F 67.7 °F 30.04 in SE 5.0 mph 6.0 mph 80% 0.00 in
23:46 74.2 °F 67.6 °F 30.04 in SE 5.0 mph 6.0 mph 80% 0.00 in
23:51 74.0 °F 67.8 °F 30.05 in ESE 4.0 mph 5.0 mph 81% 0.00 in
23:56 73.8 °F 67.6 °F 30.05 in SE 4.0 mph 6.0 mph 81% 0.00 in
Compliments of Weather Underground